Orbital Elements at Epoch 2459000.5 (2020-May-31.0) TDB
Reference: JPL 28 (heliocentric ecliptic J2000)
Element | Value | Uncertainty (1-sigma) | Units |
e | .06884161820192536 | 4.1892e-08 | |
a | 2.220965642803702 | 7.2226e-09 | au |
q | 2.068070773982216 | 9.6306e-08 | au |
i | 4.064070249013475 | 4.7869e-06 | deg |
node | 9.338546601247693 | 5.2856e-05 | deg |
peri | 80.61439285638559 | 6.4042e-05 | deg |
M | 12.77885136420765 | 3.5023e-05 | deg |
tp | 2458957.585850951178 (2020-Apr-18.08585095) | 0.00011762 | TDB |
period | 1208.957927223981 3.31 | 5.8973e-06 1.615e-08 | d yr |
n | .2977771119187208 | 1.4526e-09 | deg/d |
Q | 2.373860511625188 | 7.7198e-09 | au |
|
| | Orbit Determination Parameters
Additional Information
|